Погода в Почаеве

Украина / Тернопольская область     50°00′09″N   25°30′32″E
темп.,
°C
ветер,
м/с
пор.,
м/с
влажн.,
%
обл.,
%
осадки,
мм/ч
давл.,
гПа
погр.,
м
17 октября, вс
вс1700:00+5сз128452 0.0 102236
03:00+5з248190 0.0 1022115
06:00+6зсз247099 0.0 1022151
09:00+6зсз346873 0.0 1022715
12:00+9зсз345649 0.0 10221119
15:00+10зсз445234 0.0 10211275
18:00+7з11605 0.0 102010
21:00+5з226893 0.0 102114
18 октября, пн
пн1800:00+5зюз1169100 0.0 102210
03:00+5зюз3370100 0.0 102249
06:00+5зюз3570100 0.0 102191
09:00+6зюз3869100 0.0 1022271
12:00+8з5862100 0.0 1022953
15:00+8з697090 0.0 1022885
18:00+9з51064100 0.0 1022694
21:00+7з61182100 0.0 1022466
19 октября, вт
вт1900:00+7з61390100 0.1 1022690
03:00+8зсз71392100 0.6 10231323
06:00+4ссз2492100 0.9 1026141
09:00+4сз2491100 0.9 1028132
12:00+8сз335463 0.0 1028698
15:00+10сз34395 0.0 10281041
18:00+6ссз1150100 0.0 102810
21:00+5вюв1152100 0.0 102810
20 октября, ср
ср2000:00+4ююв33564 0.0 102825
03:00+3ю356713 0.0 102875
06:00+4ю4887100 0.0 1026139
09:00+6ю51085100 0.0 1025236
12:00+12ююз6961100 0.0 1023415
15:00+15ююз6849100 0.0 1020941
18:00+12ю41057100 0.0 1019288
21:00+9ю41167100 0.0 1018201
21 октября, чт
чт2100:00+9ююз41068100 0.0 1016171
03:00+9ю41067100 0.0 1015154
06:00+9ю41066100 0.0 1013150
09:00+10ююз41258100 0.0 1012238
12:00+16юз91745100 0.0 10111181
15:00+16зюз8125499 0.0 1010954
18:00+14зюз6116399 0.0 1010448
21:00+12зюз51266100 0.0 1011439